Weather History for Miramar MCAS, CA

Change the Weather History Date:

Tuesday, November 20, 2012

  Actual Average Record
Temperature  
Mean Temperature 57 °F -  
Max Temperature 68 °F 67 °F 87 °F (2002)
Min Temperature 46 °F 46 °F 44 °F (1998)
Degree Days  
Heating Degree Days 8    
Growing Degree Days 7 (Base 50)    
Moisture  
Dew Point 49 °F    
Average Humidity 76    
Maximum Humidity 90    
Minimum Humidity 54    
Precipitation  
Precipitation 0.00 in - - ()
Sea Level Pressure  
Sea Level Pressure 30.09 in    
Wind  
Wind Speed 5 mph (North)    
Max Wind Speed 12 mph    
Max Gust Speed -    
Visibility 10 miles    
Events      
Averages and records for this station are not official NWS values.
T = Trace of Precipitation, MM = Missing Value Source: NWS Daily Summary

Daily Weather History Graph

Daily Weather History Graph

Search for Another Location

Airport:

Trip Planner

Search our weather history database for the weather conditions in past years. The results will help you decide how hot, cold, wet, or windy it might be!

Date:

Astronomy

Nov. 20, 2012 Rise Set
Actual Time 6:23 AM PST 4:44 PM PST
Civil Twilight 5:57 AM PST 5:10 PM PST
Nautical Twilight 5:27 AM PST 5:40 PM PST
Astronomical Twilight 4:57 AM PST 6:10 PM PST
Moon 12:11 PM PST (11/20) No Moon Set
Length of Visible Light 11h 13m
Length of Day
10h 20m
First Quarter, 52% of the Moon is Illuminated
Nov 20
First Quarter
Nov 28
Full
Dec 6
Last Quarter
Dec 13
New
Dec 19
First Quarter

Hourly Weather History & Observations

Time (PST) Temp. Windchill Dew Point Humidity Pressure Visibility Wind Dir Wind Speed Gust Speed Precip Events Conditions
12:55 AM 52.0 °F - 48.9 °F 89% 30.14 in 10.0 mi ENE 4.6 mph - N/A   Partly Cloudy
1:55 AM 51.1 °F - 48.0 °F 89% 30.13 in 10.0 mi East 4.6 mph - N/A   Partly Cloudy
2:55 AM 48.9 °F - 45.0 °F 86% 30.12 in 10.0 mi NE 3.5 mph - N/A   Partly Cloudy
3:55 AM 48.0 °F - 44.1 °F 86% 30.11 in 10.0 mi NE 3.5 mph - N/A   Partly Cloudy
4:55 AM 46.9 °F - 43.0 °F 86% 30.12 in 10.0 mi NE 3.5 mph - N/A   Partly Cloudy
5:55 AM 46.0 °F 43.1 °F 43.0 °F 89% 30.12 in 10.0 mi ENE 5.8 mph - N/A   Partly Cloudy
6:55 AM 48.9 °F - 46.0 °F 90% 30.14 in 10.0 mi ENE 3.5 mph - N/A   Clear
7:55 AM 57.9 °F - 51.1 °F 78% 30.14 in 10.0 mi Calm Calm - N/A   Clear
8:55 AM 64.4 °F - 51.8 °F 64% 30.14 in 10.0 mi West 3.5 mph - N/A   Clear
9:55 AM 66.0 °F - 48.9 °F 54% 30.13 in 10.0 mi NW 6.9 mph - N/A   Clear
10:55 AM 68.0 °F - 51.1 °F 55% 30.10 in 10.0 mi WNW 6.9 mph - N/A   Clear
11:55 AM 68.0 °F - 51.1 °F 55% 30.08 in 10.0 mi NW 8.1 mph - N/A   Clear
12:55 PM 68.0 °F - 51.1 °F 55% 30.05 in 10.0 mi WNW 9.2 mph - N/A   Clear
1:55 PM 66.9 °F - 54.0 °F 63% 30.04 in 10.0 mi West 8.1 mph - N/A   Scattered Clouds
2:55 PM 66.0 °F - 53.1 °F 63% 30.04 in 10.0 mi NW 11.5 mph - N/A   Scattered Clouds
3:55 PM 64.0 °F - 55.0 °F 73% 30.04 in 10.0 mi WNW 9.2 mph - N/A   Scattered Clouds
4:55 PM 61.0 °F - 53.1 °F 75% 30.04 in 10.0 mi NW 8.1 mph - N/A   Scattered Clouds
5:55 PM 59.0 °F - 54.0 °F 83% 30.05 in 10.0 mi NW 5.8 mph - N/A   Partly Cloudy
6:55 PM 57.9 °F - 52.0 °F 81% 30.07 in 10.0 mi Calm Calm - N/A   Clear
7:55 PM 52.0 °F - 46.9 °F 83% 30.08 in 10.0 mi Calm Calm - N/A   Clear
8:55 PM 51.1 °F - 46.0 °F 83% 30.08 in 10.0 mi NE 4.6 mph - N/A   Clear
9:55 PM 48.9 °F - 45.0 °F 86% 30.07 in 10.0 mi NE 3.5 mph - N/A   Partly Cloudy
10:55 PM 48.9 °F - 44.1 °F 83% 30.07 in 10.0 mi NE 4.6 mph - N/A   Partly Cloudy
11:55 PM 50.0 °F - 46.0 °F 86% 30.06 in 10.0 mi ENE 5.8 mph - N/A   Scattered Clouds